Time,TemperatureF,DewpointF,PressureIn,WindDirection,WindDirectionDegrees,WindSpeedMPH,WindSpeedGustMPH,Humidity,HourlyPrecipIn,Conditions,Clouds,dailyrainin,SolarRadiationWatts/m^2,SoftwareType,DateUTC
2013-04-17 00:06:00,62.7,58.5,30.23,SW,224,0.0,0.0,86,0.00,FEW,,0.00,0.0,WeatherDisplay:10.37,2013-04-17 04:06:00,
2013-04-17 00:11:00,62.7,58.8,30.23,SW,224,0.0,0.0,87,0.00,FEW,,0.00,0.0,WeatherDisplay:10.37,2013-04-17 04:11:00,
2013-04-17 00:16:00,62.8,58.9,30.23,SW,224,0.0,0.0,87,0.00,FEW,,0.00,0.0,WeatherDisplay:10.37,2013-04-17 04:16:00,
2013-04-17 00:21:00,62.9,59.0,30.23,SW,224,0.0,0.0,87,0.00,FEW,,0.00,0.0,WeatherDisplay:10.37,2013-04-17 04:21:00,
2013-04-17 00:26:00,62.9,59.0,30.23,SW,224,0.0,0.0,87,0.00,FEW,,0.00,0.0,WeatherDisplay:10.37,2013-04-17 04:26:00,
2013-04-17 00:31:00,62.9,59.0,30.22,SSW,210,0.0,1.0,87,0.00,FEW,,0.00,0.0,WeatherDisplay:10.37,2013-04-17 04:31:00,
2013-04-17 00:36:00,62.9,59.3,30.22,SE,138,0.0,1.0,88,0.00,FEW,,0.00,0.0,WeatherDisplay:10.37,2013-04-17 04:36:00,
2013-04-17 00:41:00,62.9,59.0,30.22,ESE,113,0.0,0.0,87,0.00,FEW,,0.00,0.0,WeatherDisplay:10.37,2013-04-17 04:41:00,
2013-04-17 00:46:00,62.9,59.0,30.22,ESE,113,0.0,0.0,87,0.00,FEW,,0.00,0.0,WeatherDisplay:10.37,2013-04-17 04:46:00,
2013-04-17 00:56:00,62.7,59.1,30.22,ESE,113,0.0,0.0,88,0.00,FEW,,0.00,0.0,WeatherDisplay:10.37,2013-04-17 04:56:00,
2013-04-17 01:01:00,62.7,59.1,30.22,ESE,113,0.0,0.0,88,0.00,FEW,,0.00,0.0,WeatherDisplay:10.37,2013-04-17 05:01:00,
2013-04-17 01:11:00,62.7,59.4,30.22,ESE,113,0.0,1.0,89,0.00,FEW,,0.00,0.0,WeatherDisplay:10.37,2013-04-17 05:11:00,
2013-04-17 01:16:00,62.7,59.4,30.22,ESE,113,0.0,0.0,89,0.00,FEW,,0.00,0.0,WeatherDisplay:10.37,2013-04-17 05:16:00,
2013-04-17 01:21:00,62.7,59.4,30.22,ESE,113,0.0,0.0,89,0.00,FEW,,0.00,0.0,WeatherDisplay:10.37,2013-04-17 05:21:00,
2013-04-17 01:26:00,62.7,59.4,30.22,East,99,0.0,1.0,89,0.00,FEW,,0.00,0.0,WeatherDisplay:10.37,2013-04-17 05:26:00,
2013-04-17 01:31:00,62.7,59.4,30.22,East,84,0.0,0.0,89,0.00,FEW,,0.00,0.0,WeatherDisplay:10.37,2013-04-17 05:31:00,
2013-04-17 01:36:00,62.6,59.3,30.22,East,84,0.0,0.0,89,0.00,FEW,,0.00,0.0,WeatherDisplay:10.37,2013-04-17 05:36:00,
2013-04-17 01:41:00,62.6,59.3,30.22,East,84,0.0,0.0,89,0.00,FEW,,0.00,0.0,WeatherDisplay:10.37,2013-04-17 05:41:00,
2013-04-17 01:46:00,62.6,59.3,30.22,East,84,0.0,0.0,89,0.00,FEW,,0.00,0.0,WeatherDisplay:10.37,2013-04-17 05:46:00,
2013-04-17 01:51:00,62.4,59.1,30.22,East,84,0.0,0.0,89,0.00,FEW,,0.00,0.0,WeatherDisplay:10.37,2013-04-17 05:51:00,
2013-04-17 01:56:00,62.4,59.1,30.22,East,84,0.0,1.0,89,0.00,FEW,,0.00,0.0,WeatherDisplay:10.37,2013-04-17 05:56:00,
2013-04-17 02:06:00,62.4,59.4,30.22,East,84,0.0,0.0,90,0.00,FEW,,0.00,0.0,WeatherDisplay:10.37,2013-04-17 06:06:00,
2013-04-17 02:11:00,62.3,59.3,30.22,East,84,0.0,0.0,90,0.00,FEW,,0.00,0.0,WeatherDisplay:10.37,2013-04-17 06:11:00,
2013-04-17 02:16:00,62.3,59.3,30.22,East,84,0.0,0.0,90,0.00,FEW,,0.00,0.0,WeatherDisplay:10.37,2013-04-17 06:16:00,
2013-04-17 02:21:00,62.1,59.1,30.21,East,84,0.0,0.0,90,0.00,FEW,,0.00,0.0,WeatherDisplay:10.37,2013-04-17 06:21:00,
2013-04-17 02:26:00,62.1,58.8,30.21,East,84,0.0,0.0,89,0.00,FEW,,0.00,0.0,WeatherDisplay:10.37,2013-04-17 06:26:00,
2013-04-17 02:31:00,62.0,58.7,30.21,East,84,0.0,0.0,89,0.00,FEW,,0.00,0.0,WeatherDisplay:10.37,2013-04-17 06:31:00,
2013-04-17 02:36:00,61.8,58.5,30.21,East,84,0.0,0.0,89,0.00,FEW,,0.00,0.0,WeatherDisplay:10.37,2013-04-17 06:36:00,
2013-04-17 02:41:00,61.8,58.5,30.21,East,84,0.0,0.0,89,0.00,FEW,,0.00,0.0,WeatherDisplay:10.37,2013-04-17 06:41:00,
2013-04-17 02:46:00,61.6,58.6,30.21,East,84,0.0,0.0,90,0.00,FEW,,0.00,0.0,WeatherDisplay:10.37,2013-04-17 06:46:00,
2013-04-17 02:51:00,61.5,58.6,30.21,East,84,0.0,0.0,90,0.00,FEW,,0.00,0.0,WeatherDisplay:10.37,2013-04-17 06:51:00,
2013-04-17 02:56:00,61.5,58.5,30.20,East,84,0.0,0.0,90,0.00,FEW,,0.00,0.0,WeatherDisplay:10.37,2013-04-17 06:56:00,
2013-04-17 03:06:00,61.3,58.3,30.20,East,84,0.0,0.0,90,0.00,FEW,,0.00,0.0,WeatherDisplay:10.37,2013-04-17 07:06:00,
2013-04-17 03:11:00,61.3,58.3,30.20,East,84,0.0,0.0,90,0.00,FEW,,0.00,0.0,WeatherDisplay:10.37,2013-04-17 07:11:00,
2013-04-17 03:26:00,61.0,58.4,30.20,East,84,0.0,0.0,91,0.00,FEW,,0.00,0.0,WeatherDisplay:10.37,2013-04-17 07:26:00,
2013-04-17 03:31:00,60.9,58.3,30.20,East,84,0.0,0.0,91,0.00,FEW,,0.00,0.0,WeatherDisplay:10.37,2013-04-17 07:31:00,
2013-04-17 03:36:00,60.9,58.3,30.19,East,84,0.0,0.0,91,0.00,FEW,,0.00,0.0,WeatherDisplay:10.37,2013-04-17 07:36:00,
2013-04-17 03:41:00,60.9,58.3,30.19,East,90,0.0,1.0,91,0.00,FEW,,0.00,0.0,WeatherDisplay:10.37,2013-04-17 07:41:00,
2013-04-17 03:46:00,60.8,58.1,30.20,East,101,0.0,0.0,91,0.00,FEW,,0.00,0.0,WeatherDisplay:10.37,2013-04-17 07:46:00,
2013-04-17 03:56:00,60.7,58.4,30.19,East,80,0.0,0.0,92,0.00,FEW,,0.00,0.0,WeatherDisplay:10.37,2013-04-17 07:56:00,
2013-04-17 04:01:00,60.7,58.4,30.19,East,80,0.0,0.0,92,0.00,FEW,,0.00,0.0,WeatherDisplay:10.37,2013-04-17 08:01:00,
2013-04-17 04:11:00,60.6,58.3,30.19,East,80,0.0,0.0,92,0.00,FEW,,0.00,0.0,WeatherDisplay:10.37,2013-04-17 08:11:00,
2013-04-17 04:16:00,60.5,58.2,30.19,East,80,0.0,0.0,92,0.00,FEW,,0.00,0.0,WeatherDisplay:10.37,2013-04-17 08:16:00,
2013-04-17 04:21:00,60.5,58.2,30.19,East,80,0.0,0.0,92,0.00,FEW,,0.00,0.0,WeatherDisplay:10.37,2013-04-17 08:21:00,
2013-04-17 04:26:00,60.4,58.1,30.19,East,80,0.0,0.0,92,0.00,FEW,,0.00,0.0,WeatherDisplay:10.37,2013-04-17 08:26:00,
2013-04-17 04:31:00,60.3,58.0,30.19,East,80,0.0,0.0,92,0.00,FEW,,0.00,0.0,WeatherDisplay:10.37,2013-04-17 08:31:00,
2013-04-17 04:36:00,60.2,57.9,30.19,East,80,0.0,0.0,92,0.00,FEW,,0.00,0.0,WeatherDisplay:10.37,2013-04-17 08:36:00,
2013-04-17 04:41:00,60.1,57.8,30.18,East,80,0.0,0.0,92,0.00,FEW,,0.00,0.0,WeatherDisplay:10.37,2013-04-17 08:41:00,
2013-04-17 04:46:00,59.9,57.6,30.18,East,80,0.0,0.0,92,0.00,FEW,,0.00,0.0,WeatherDisplay:10.37,2013-04-17 08:46:00,
2013-04-17 04:51:00,59.8,57.5,30.18,East,80,0.0,0.0,92,0.00,FEW,,0.00,0.0,WeatherDisplay:10.37,2013-04-17 08:51:00,
2013-04-17 04:56:00,59.6,57.3,30.18,East,80,0.0,0.0,92,0.00,FEW,,0.00,0.0,WeatherDisplay:10.37,2013-04-17 08:56:00,
2013-04-17 05:01:00,59.5,57.2,30.18,East,80,0.0,0.0,92,0.00,FEW,,0.00,0.0,WeatherDisplay:10.37,2013-04-17 09:01:00,
2013-04-17 05:11:00,59.3,56.7,30.19,East,80,0.0,0.0,91,0.00,FEW,,0.00,0.0,WeatherDisplay:10.37,2013-04-17 09:11:00,
2013-04-17 05:16:00,59.2,56.6,30.19,East,80,0.0,0.0,91,0.00,FEW,,0.00,0.0,WeatherDisplay:10.37,2013-04-17 09:16:00,
2013-04-17 05:21:00,59.0,56.4,30.19,East,80,0.0,0.0,91,0.00,FEW,,0.00,0.0,WeatherDisplay:10.37,2013-04-17 09:21:00,
2013-04-17 05:31:00,58.9,56.6,30.20,East,80,0.0,0.0,92,0.00,FEW,,0.00,0.0,WeatherDisplay:10.37,2013-04-17 09:31:00,
2013-04-17 05:36:00,58.9,56.6,30.19,East,80,0.0,0.0,92,0.00,FEW,,0.00,0.0,WeatherDisplay:10.37,2013-04-17 09:36:00,
2013-04-17 05:41:00,58.7,56.4,30.20,East,80,0.0,0.0,92,0.00,FEW,,0.00,0.0,WeatherDisplay:10.37,2013-04-17 09:41:00,
2013-04-17 05:46:00,58.7,56.4,30.20,East,80,0.0,0.0,92,0.00,FEW,,0.00,0.0,WeatherDisplay:10.37,2013-04-17 09:46:00,
2013-04-17 05:51:00,58.6,56.3,30.20,East,80,0.0,0.0,92,0.00,FEW,,0.00,0.0,WeatherDisplay:10.37,2013-04-17 09:51:00,
2013-04-17 05:56:00,58.6,56.3,30.20,East,80,0.0,0.0,92,0.00,FEW,,0.00,0.0,WeatherDisplay:10.37,2013-04-17 09:56:00,
2013-04-17 06:01:00,58.4,56.1,30.20,East,80,0.0,0.0,92,0.00,SCT,,0.00,0.0,WeatherDisplay:10.37,2013-04-17 10:01:00,
2013-04-17 06:11:00,58.4,56.1,30.21,East,80,0.0,0.0,92,0.00,SCT,,0.00,0.0,WeatherDisplay:10.37,2013-04-17 10:11:00,
2013-04-17 06:16:00,58.3,56.0,30.20,East,80,0.0,0.0,92,0.00,SCT,,0.00,0.0,WeatherDisplay:10.37,2013-04-17 10:16:00,
2013-04-17 06:21:00,58.3,56.0,30.20,East,80,0.0,0.0,92,0.00,SCT,,0.00,0.0,WeatherDisplay:10.37,2013-04-17 10:21:00,
2013-04-17 06:26:00,58.3,56.0,30.20,East,80,0.0,0.0,92,0.00,SCT,,0.00,0.0,WeatherDisplay:10.37,2013-04-17 10:26:00,
2013-04-17 06:31:00,58.1,55.8,30.20,East,80,0.0,0.0,92,0.00,SCT,,0.00,0.0,WeatherDisplay:10.37,2013-04-17 10:31:00,
2013-04-17 06:36:00,58.1,55.8,30.20,East,80,0.0,0.0,92,0.00,SCT,,0.00,0.0,WeatherDisplay:10.37,2013-04-17 10:36:00,
2013-04-17 06:41:00,58.0,55.7,30.21,East,80,0.0,0.0,92,0.00,SCT,,0.00,0.0,WeatherDisplay:10.37,2013-04-17 10:41:00,
2013-04-17 06:46:00,58.0,55.7,30.21,East,80,0.0,0.0,92,0.00,SCT,,0.00,8.0,WeatherDisplay:10.37,2013-04-17 10:46:00,
2013-04-17 06:51:00,58.0,55.7,30.21,East,80,0.0,0.0,92,0.00,SCT,,0.00,10.4,WeatherDisplay:10.37,2013-04-17 10:51:00,
2013-04-17 06:56:00,58.0,55.7,30.21,East,80,0.0,0.0,92,0.00,SCT,,0.00,13.8,WeatherDisplay:10.37,2013-04-17 10:56:00,
2013-04-17 07:01:00,58.0,56.0,30.22,East,80,0.0,0.0,93,0.00,BKN,,0.00,16.1,WeatherDisplay:10.37,2013-04-17 11:01:00,
2013-04-17 07:11:00,58.1,56.1,30.22,East,80,0.0,0.0,93,0.00,BKN,,0.00,24.2,WeatherDisplay:10.37,2013-04-17 11:11:00,
2013-04-17 07:16:00,58.1,56.1,30.22,East,80,0.0,0.0,93,0.00,BKN,,0.00,21.8,WeatherDisplay:10.37,2013-04-17 11:16:00,
2013-04-17 07:21:00,58.3,56.6,30.23,East,80,0.0,0.0,94,0.00,BKN,,0.00,26.5,WeatherDisplay:10.37,2013-04-17 11:21:00,
2013-04-17 07:26:00,58.3,56.6,30.23,East,80,0.0,0.0,94,0.00,BKN,,0.00,28.7,WeatherDisplay:10.37,2013-04-17 11:26:00,
2013-04-17 07:31:00,58.5,56.7,30.23,East,80,0.0,0.0,94,0.00,BKN,,0.00,20.7,WeatherDisplay:10.37,2013-04-17 11:31:00,
2013-04-17 07:36:00,58.7,57.0,30.23,East,80,0.0,0.0,94,0.00,BKN,,0.00,26.5,WeatherDisplay:10.37,2013-04-17 11:36:00,
2013-04-17 07:41:00,58.8,57.4,30.23,East,80,0.0,0.0,95,0.00,BKN,,0.00,26.5,WeatherDisplay:10.37,2013-04-17 11:41:00,
2013-04-17 07:46:00,59.0,57.6,30.23,East,80,0.0,0.0,95,0.00,BKN,,0.00,40.3,WeatherDisplay:10.37,2013-04-17 11:46:00,
2013-04-17 07:51:00,59.2,57.8,30.23,East,80,0.0,0.0,95,0.00,BKN,,0.00,46.0,WeatherDisplay:10.37,2013-04-17 11:51:00,
2013-04-17 07:56:00,59.5,58.1,30.23,East,80,0.0,0.0,95,0.00,BKN,,0.00,66.7,WeatherDisplay:10.37,2013-04-17 11:56:00,
2013-04-17 08:01:00,59.8,58.7,30.23,East,80,0.0,0.0,96,0.00,BKN,,0.00,88.6,WeatherDisplay:10.37,2013-04-17 12:01:00,
2013-04-17 08:11:00,60.7,59.5,30.23,East,80,0.0,0.0,96,0.00,BKN,,0.00,93.2,WeatherDisplay:10.37,2013-04-17 12:11:00,
2013-04-17 08:16:00,61.1,59.9,30.23,East,80,0.0,0.0,96,0.00,BKN,,0.00,79.4,WeatherDisplay:10.37,2013-04-17 12:16:00,
2013-04-17 08:21:00,61.5,60.4,30.22,East,94,0.0,0.0,96,0.00,BKN,,0.00,74.8,WeatherDisplay:10.37,2013-04-17 12:21:00,
2013-04-17 08:26:00,62.0,60.8,30.21,SE,125,0.0,0.0,96,0.00,BKN,,0.00,80.5,WeatherDisplay:10.37,2013-04-17 12:26:00,
2013-04-17 08:31:00,62.3,61.1,30.21,SE,138,0.0,0.0,96,0.00,BKN,,0.00,79.4,WeatherDisplay:10.37,2013-04-17 12:31:00,
2013-04-17 08:36:00,62.6,61.4,30.21,SE,138,0.0,0.0,96,0.00,BKN,,0.00,106.9,WeatherDisplay:10.37,2013-04-17 12:36:00,
2013-04-17 08:41:00,62.9,61.7,30.21,SSE,158,0.0,2.0,96,0.00,BKN,,0.00,112.7,WeatherDisplay:10.37,2013-04-17 12:41:00,
2013-04-17 08:46:00,63.2,62.4,30.21,SW,218,0.0,2.0,97,0.00,BKN,,0.00,109.2,WeatherDisplay:10.37,2013-04-17 12:46:00,
2013-04-17 08:51:00,63.5,62.3,30.21,WSW,255,0.0,2.0,96,0.00,BKN,,0.00,138.0,WeatherDisplay:10.37,2013-04-17 12:51:00,
2013-04-17 08:56:00,63.9,62.7,30.21,WSW,247,0.0,1.0,96,0.00,BKN,,0.00,101.2,WeatherDisplay:10.37,2013-04-17 12:56:00,
2013-04-17 09:01:00,64.0,62.8,30.21,SW,219,0.0,0.0,96,0.00,SCT,,0.00,109.2,WeatherDisplay:10.37,2013-04-17 13:01:00,
2013-04-17 09:11:00,64.5,63.3,30.20,SSW,211,0.0,0.0,96,0.00,SCT,,0.00,475.0,WeatherDisplay:10.37,2013-04-17 13:11:00,
2013-04-17 09:16:00,65.0,63.8,30.20,WSW,237,0.0,5.0,96,0.00,SCT,,0.00,507.1,WeatherDisplay:10.37,2013-04-17 13:16:00,
2013-04-17 09:21:00,65.3,64.1,30.20,SW,231,0.0,5.0,96,0.00,SCT,,0.00,535.9,WeatherDisplay:10.37,2013-04-17 13:21:00,
2013-04-17 09:26:00,65.8,64.4,30.20,SSW,210,0.0,3.0,95,0.00,SCT,,0.00,570.4,WeatherDisplay:10.37,2013-04-17 13:26:00,
2013-04-17 09:31:00,66.3,63.9,30.20,SSW,192,1.0,3.0,92,0.00,SCT,,0.00,522.1,WeatherDisplay:10.37,2013-04-17 13:31:00,
2013-04-17 09:36:00,66.9,63.9,30.20,South,169,1.0,4.0,90,0.00,SCT,,0.00,630.2,WeatherDisplay:10.37,2013-04-17 13:36:00,
2013-04-17 09:41:00,67.6,63.6,30.20,SSE,148,0.0,2.0,87,0.00,SCT,,0.00,355.3,WeatherDisplay:10.37,2013-04-17 13:41:00,
2013-04-17 09:46:00,68.2,63.5,30.20,SSE,166,0.0,4.0,85,0.00,SCT,,0.00,527.8,WeatherDisplay:10.37,2013-04-17 13:46:00,
2013-04-17 09:51:00,68.9,63.2,30.20,SSW,193,0.0,3.0,82,0.00,SCT,,0.00,608.3,WeatherDisplay:10.37,2013-04-17 13:51:00,
2013-04-17 09:56:00,69.7,63.3,30.20,SSW,198,1.0,3.0,80,0.00,SCT,,0.00,600.3,WeatherDisplay:10.37,2013-04-17 13:56:00,
2013-04-17 10:01:00,70.4,63.2,30.19,NNE,22,0.0,2.0,78,0.00,BKN,,0.00,629.1,WeatherDisplay:10.37,2013-04-17 14:01:00,
2013-04-17 10:11:00,71.6,63.3,30.19,WNW,292,0.0,3.0,75,0.00,BKN,,0.00,656.7,WeatherDisplay:10.37,2013-04-17 14:11:00,
2013-04-17 10:16:00,72.1,63.4,30.19,SSE,156,0.0,2.0,74,0.00,BKN,,0.00,604.9,WeatherDisplay:10.37,2013-04-17 14:16:00,
2013-04-17 10:26:00,73.2,63.2,30.19,SSE,168,0.0,6.0,71,0.00,BKN,,0.00,672.8,WeatherDisplay:10.37,2013-04-17 14:26:00,
2013-04-17 10:31:00,73.5,63.1,30.20,ESE,108,0.0,2.0,70,0.00,BKN,,0.00,703.8,WeatherDisplay:10.37,2013-04-17 14:31:00,
2013-04-17 10:36:00,73.9,63.9,30.20,SE,126,2.0,4.0,71,0.00,BKN,,0.00,768.2,WeatherDisplay:10.37,2013-04-17 14:36:00,
2013-04-17 10:41:00,74.1,64.1,30.20,South,179,0.0,2.0,71,0.00,BKN,,0.00,754.4,WeatherDisplay:10.37,2013-04-17 14:41:00,
2013-04-17 10:46:00,74.6,64.6,30.20,West,281,0.0,2.0,71,0.00,BKN,,0.00,703.8,WeatherDisplay:10.37,2013-04-17 14:46:00,
2013-04-17 10:51:00,74.7,63.0,30.20,SW,226,1.0,2.0,67,0.00,BKN,,0.00,616.4,WeatherDisplay:10.37,2013-04-17 14:51:00,
2013-04-17 11:01:00,75.4,63.7,30.20,WSW,258,1.0,5.0,67,0.00,BKN,,0.00,826.9,WeatherDisplay:10.37,2013-04-17 15:01:00,
2013-04-17 11:11:00,76.2,64.1,30.20,WSW,250,1.0,6.0,66,0.00,BKN,,0.00,877.5,WeatherDisplay:10.37,2013-04-17 15:11:00,
2013-04-17 11:16:00,76.8,63.7,30.20,West,268,1.0,5.0,64,0.00,BKN,,0.00,853.3,WeatherDisplay:10.37,2013-04-17 15:16:00,
2013-04-17 11:21:00,77.0,63.9,30.19,West,280,1.0,5.0,64,0.00,BKN,,0.00,897.0,WeatherDisplay:10.37,2013-04-17 15:21:00,
2013-04-17 11:26:00,77.2,63.2,30.19,SW,216,1.0,4.0,62,0.00,BKN,,0.00,906.2,WeatherDisplay:10.37,2013-04-17 15:26:00,
2013-04-17 11:31:00,77.3,63.7,30.19,SSW,207,1.0,3.0,63,0.00,BKN,,0.00,917.7,WeatherDisplay:10.37,2013-04-17 15:31:00,
2013-04-17 11:36:00,77.7,63.2,30.19,SW,228,1.0,2.0,61,0.00,BKN,,0.00,925.7,WeatherDisplay:10.37,2013-04-17 15:36:00,
2013-04-17 11:41:00,77.9,63.8,30.19,WNW,285,1.0,4.0,62,0.00,BKN,,0.00,931.5,WeatherDisplay:10.37,2013-04-17 15:41:00,
2013-04-17 11:46:00,78.1,64.0,30.19,SW,218,2.0,4.0,62,0.00,BKN,,0.00,960.2,WeatherDisplay:10.37,2013-04-17 15:46:00,
2013-04-17 11:51:00,78.3,64.2,30.19,South,184,1.0,3.0,62,0.00,BKN,,0.00,984.4,WeatherDisplay:10.37,2013-04-17 15:51:00,
2013-04-17 11:56:00,78.3,63.3,30.18,SSE,149,0.0,5.0,60,0.00,BKN,,0.00,974.0,WeatherDisplay:10.37,2013-04-17 15:56:00,
2013-04-17 12:01:00,78.6,63.5,30.18,SE,139,1.0,4.0,60,0.00,BKN,,0.00,989.0,WeatherDisplay:10.37,2013-04-17 16:01:00,
2013-04-17 12:11:00,79.4,64.3,30.18,NNW,343,1.0,5.0,60,0.00,BKN,,0.00,1064.9,WeatherDisplay:10.37,2013-04-17 16:11:00,
2013-04-17 12:16:00,79.4,63.8,30.18,SSW,202,0.0,3.0,59,0.00,BKN,,0.00,1002.8,WeatherDisplay:10.37,2013-04-17 16:16:00,
2013-04-17 12:21:00,79.6,63.5,30.18,SSE,158,1.0,4.0,58,0.00,BKN,,0.00,955.7,WeatherDisplay:10.37,2013-04-17 16:21:00,
2013-04-17 12:26:00,79.8,62.8,30.18,SW,232,1.0,2.0,56,0.00,BKN,,0.00,949.9,WeatherDisplay:10.37,2013-04-17 16:26:00,
2013-04-17 12:31:00,80.3,63.7,30.18,WNW,282,1.0,4.0,57,0.00,BKN,,0.00,786.6,WeatherDisplay:10.37,2013-04-17 16:31:00,
2013-04-17 12:36:00,80.3,63.7,30.18,SW,220,2.0,4.0,57,0.00,BKN,,0.00,541.7,WeatherDisplay:10.37,2013-04-17 16:36:00,
2013-04-17 12:41:00,80.1,63.5,30.18,SSW,207,0.0,4.0,57,0.00,BKN,,0.00,606.0,WeatherDisplay:10.37,2013-04-17 16:41:00,
2013-04-17 12:46:00,79.9,62.8,30.17,SSW,195,1.0,4.0,56,0.00,BKN,,0.00,630.2,WeatherDisplay:10.37,2013-04-17 16:46:00,
2013-04-17 12:51:00,79.9,63.3,30.17,South,171,1.0,3.0,57,0.00,BKN,,0.00,527.8,WeatherDisplay:10.37,2013-04-17 16:51:00,
2013-04-17 12:56:00,79.8,62.7,30.17,SSW,202,0.0,3.0,56,0.00,BKN,,0.00,722.2,WeatherDisplay:10.37,2013-04-17 16:56:00,
2013-04-17 13:01:00,80.0,64.4,30.17,SSW,208,1.0,3.0,59,0.00,BKN,,0.00,653.2,WeatherDisplay:10.37,2013-04-17 17:01:00,
2013-04-17 13:11:00,80.3,63.2,30.17,WSW,252,1.0,2.0,56,0.00,BKN,,0.00,826.9,WeatherDisplay:10.37,2013-04-17 17:11:00,
2013-04-17 13:16:00,80.5,64.8,30.17,WSW,255,0.0,2.0,59,0.00,BKN,,0.00,295.5,WeatherDisplay:10.37,2013-04-17 17:16:00,
2013-04-17 13:21:00,80.3,63.2,30.17,SW,223,0.0,5.0,56,0.00,BKN,,0.00,236.9,WeatherDisplay:10.37,2013-04-17 17:21:00,
2013-04-17 13:26:00,80.1,63.5,30.17,South,178,1.0,4.0,57,0.00,BKN,,0.00,266.8,WeatherDisplay:10.37,2013-04-17 17:26:00,
2013-04-17 13:31:00,79.8,63.7,30.17,SSW,200,1.0,4.0,58,0.00,BKN,,0.00,293.3,WeatherDisplay:10.37,2013-04-17 17:31:00,
2013-04-17 13:36:00,79.4,64.3,30.17,SSW,197,0.0,3.0,60,0.00,BKN,,0.00,420.9,WeatherDisplay:10.37,2013-04-17 17:36:00,
2013-04-17 13:41:00,79.2,63.6,30.17,South,181,0.0,2.0,59,0.00,BKN,,0.00,426.7,WeatherDisplay:10.37,2013-04-17 17:41:00,
2013-04-17 13:46:00,79.6,65.9,30.16,WSW,245,0.0,4.0,63,0.00,BKN,,0.00,327.8,WeatherDisplay:10.37,2013-04-17 17:46:00,
2013-04-17 13:51:00,79.6,64.0,30.16,WNW,295,0.0,1.0,59,0.00,BKN,,0.00,584.2,WeatherDisplay:10.37,2013-04-17 17:51:00,
2013-04-17 13:56:00,79.8,63.7,30.16,South,176,1.0,4.0,58,0.00,BKN,,0.00,523.3,WeatherDisplay:10.37,2013-04-17 17:56:00,
2013-04-17 14:01:00,79.9,64.3,30.16,SSW,201,1.0,3.0,59,0.00,BKN,,0.00,420.9,WeatherDisplay:10.37,2013-04-17 18:01:00,
2013-04-17 14:06:00,79.9,65.3,30.16,WSW,249,0.0,1.0,61,0.00,BKN,,0.00,446.2,WeatherDisplay:10.37,2013-04-17 18:06:00,
2013-04-17 14:16:00,80.1,63.5,30.16,South,185,0.0,2.0,57,0.00,BKN,,0.00,480.7,WeatherDisplay:10.37,2013-04-17 18:16:00,
2013-04-17 14:21:00,80.5,64.4,30.16,South,189,1.0,3.0,58,0.00,BKN,,0.00,914.2,WeatherDisplay:10.37,2013-04-17 18:21:00,
2013-04-17 14:26:00,80.7,64.1,30.16,NNE,20,1.0,6.0,57,0.00,BKN,,0.00,1053.4,WeatherDisplay:10.37,2013-04-17 18:26:00,
2013-04-17 14:31:00,81.2,65.5,30.16,ESE,117,0.0,2.0,59,0.00,BKN,,0.00,895.8,WeatherDisplay:10.37,2013-04-17 18:31:00,
2013-04-17 14:36:00,81.8,65.6,30.15,NNW,327,0.0,2.0,58,0.00,BKN,,0.00,1128.1,WeatherDisplay:10.37,2013-04-17 18:36:00,
2013-04-17 14:41:00,82.0,64.2,30.15,NNW,331,0.0,3.0,55,0.00,BKN,,0.00,1064.9,WeatherDisplay:10.37,2013-04-17 18:41:00,
2013-04-17 14:46:00,82.2,64.4,30.15,WSW,246,0.0,3.0,55,0.00,BKN,,0.00,341.6,WeatherDisplay:10.37,2013-04-17 18:46:00,
2013-04-17 14:51:00,82.1,64.8,30.15,SW,216,0.0,3.0,56,0.00,BKN,,0.00,1064.9,WeatherDisplay:10.37,2013-04-17 18:51:00,
2013-04-17 15:01:00,81.6,63.3,30.15,West,269,0.0,2.0,54,0.00,BKN,,0.00,363.4,WeatherDisplay:10.37,2013-04-17 19:01:00,
2013-04-17 15:11:00,81.6,64.4,30.15,South,177,2.0,4.0,56,0.00,BKN,,0.00,813.1,WeatherDisplay:10.37,2013-04-17 19:11:00,
2013-04-17 15:16:00,81.4,64.2,30.15,SW,227,1.0,3.0,56,0.00,BKN,,0.00,691.2,WeatherDisplay:10.37,2013-04-17 19:16:00,
2013-04-17 15:21:00,81.2,63.5,30.14,West,268,1.0,2.0,55,0.00,BKN,,0.00,782.0,WeatherDisplay:10.37,2013-04-17 19:21:00,
2013-04-17 15:26:00,81.4,64.2,30.14,SE,143,1.0,5.0,56,0.00,BKN,,0.00,406.0,WeatherDisplay:10.37,2013-04-17 19:26:00,
2013-04-17 15:31:00,81.1,63.9,30.13,SSW,209,0.0,3.0,56,0.00,BKN,,0.00,291.0,WeatherDisplay:10.37,2013-04-17 19:31:00,
2013-04-17 15:41:00,80.5,63.9,30.13,SSE,157,0.0,2.0,57,0.00,BKN,,0.00,455.4,WeatherDisplay:10.37,2013-04-17 19:41:00,
2013-04-17 15:46:00,80.4,63.3,30.13,SE,138,0.0,3.0,56,0.00,BKN,,0.00,855.6,WeatherDisplay:10.37,2013-04-17 19:46:00,
2013-04-17 15:51:00,81.0,65.3,30.12,NNW,332,1.0,3.0,59,0.00,BKN,,0.00,594.5,WeatherDisplay:10.37,2013-04-17 19:51:00,
2013-04-17 15:56:00,81.1,65.4,30.12,NNW,339,0.0,2.0,59,0.00,BKN,,0.00,754.4,WeatherDisplay:10.37,2013-04-17 19:56:00,
2013-04-17 16:01:00,81.2,64.5,30.12,NNW,340,0.0,2.0,57,0.00,BKN,,0.00,661.3,WeatherDisplay:10.37,2013-04-17 20:01:00,
2013-04-17 16:11:00,81.4,63.1,30.12,NW,311,1.0,2.0,54,0.00,BKN,,0.00,730.3,WeatherDisplay:10.37,2013-04-17 20:11:00,
2013-04-17 16:16:00,81.7,63.5,30.12,WSW,244,0.0,4.0,54,0.00,BKN,,0.00,571.5,WeatherDisplay:10.37,2013-04-17 20:16:00,
2013-04-17 16:21:00,81.8,63.0,30.12,WSW,237,0.0,2.0,53,0.00,BKN,,0.00,264.5,WeatherDisplay:10.37,2013-04-17 20:21:00,
2013-04-17 16:26:00,81.8,63.5,30.12,SW,223,1.0,2.0,54,0.00,BKN,,0.00,245.0,WeatherDisplay:10.37,2013-04-17 20:26:00,
2013-04-17 16:31:00,81.8,63.5,30.12,WSW,240,0.0,2.0,54,0.00,BKN,,0.00,790.0,WeatherDisplay:10.37,2013-04-17 20:31:00,
2013-04-17 16:36:00,82.1,64.3,30.11,WSW,253,1.0,4.0,55,0.00,BKN,,0.00,677.4,WeatherDisplay:10.37,2013-04-17 20:36:00,
2013-04-17 16:41:00,82.2,62.8,30.11,WSW,246,1.0,3.0,52,0.00,BKN,,0.00,301.3,WeatherDisplay:10.37,2013-04-17 20:41:00,
2013-04-17 16:46:00,82.4,64.1,30.11,WSW,241,0.0,2.0,54,0.00,BKN,,0.00,196.6,WeatherDisplay:10.37,2013-04-17 20:46:00,
2013-04-17 16:51:00,82.4,63.0,30.11,WSW,240,1.0,2.0,52,0.00,BKN,,0.00,472.7,WeatherDisplay:10.37,2013-04-17 20:51:00,
2013-04-17 16:56:00,82.4,63.0,30.11,SSW,195,0.0,3.0,52,0.00,BKN,,0.00,246.1,WeatherDisplay:10.37,2013-04-17 20:56:00,
2013-04-17 17:01:00,82.4,63.5,30.10,South,175,0.0,3.0,53,0.00,BKN,,0.00,155.3,WeatherDisplay:10.37,2013-04-17 21:01:00,
2013-04-17 17:11:00,82.4,63.5,30.10,WSW,237,1.0,2.0,53,0.00,BKN,,0.00,119.6,WeatherDisplay:10.37,2013-04-17 21:11:00,
2013-04-17 17:16:00,82.2,63.4,30.10,WSW,237,0.0,2.0,53,0.00,BKN,,0.00,141.4,WeatherDisplay:10.37,2013-04-17 21:16:00,
2013-04-17 17:21:00,81.9,63.6,30.10,WSW,237,0.0,1.0,54,0.00,BKN,,0.00,186.3,WeatherDisplay:10.37,2013-04-17 21:21:00,
2013-04-17 17:26:00,81.6,63.4,30.10,West,263,0.0,2.0,54,0.00,BKN,,0.00,230.0,WeatherDisplay:10.37,2013-04-17 21:26:00,
2013-04-17 17:31:00,81.6,63.3,30.10,NE,40,1.0,2.0,54,0.00,BKN,,0.00,173.6,WeatherDisplay:10.37,2013-04-17 21:31:00,
2013-04-17 17:36:00,81.4,63.6,30.10,ENE,64,0.0,2.0,55,0.00,BKN,,0.00,360.0,WeatherDisplay:10.37,2013-04-17 21:36:00,
2013-04-17 17:46:00,81.4,63.2,30.10,NE,49,0.0,4.0,54,0.00,BKN,,0.00,416.3,WeatherDisplay:10.37,2013-04-17 21:46:00,
2013-04-17 17:56:00,81.8,63.0,30.11,SSE,167,0.0,3.0,53,0.00,BKN,,0.00,330.0,WeatherDisplay:10.37,2013-04-17 21:56:00,
2013-04-17 18:01:00,81.8,63.6,30.11,East,96,0.0,2.0,54,0.00,BKN,,0.00,123.1,WeatherDisplay:10.37,2013-04-17 22:01:00,
2013-04-17 18:11:00,82.0,63.7,30.11,SE,132,0.0,2.0,54,0.00,BKN,,0.00,127.7,WeatherDisplay:10.37,2013-04-17 22:11:00,
2013-04-17 18:16:00,82.0,63.2,30.11,SSE,147,0.0,2.0,53,0.00,BKN,,0.00,80.5,WeatherDisplay:10.37,2013-04-17 22:16:00,
2013-04-17 18:21:00,82.0,63.7,30.11,SE,136,0.0,2.0,54,0.00,BKN,,0.00,52.9,WeatherDisplay:10.37,2013-04-17 22:21:00,
2013-04-17 18:26:00,81.8,63.5,30.11,SE,132,0.0,0.0,54,0.00,BKN,,0.00,79.4,WeatherDisplay:10.37,2013-04-17 22:26:00,
2013-04-17 18:31:00,81.6,63.3,30.11,SE,132,0.0,0.0,54,0.00,BKN,,0.00,69.0,WeatherDisplay:10.37,2013-04-17 22:31:00,
2013-04-17 18:36:00,81.4,64.2,30.11,SE,132,0.0,0.0,56,0.00,BKN,,0.00,61.0,WeatherDisplay:10.37,2013-04-17 22:36:00,
2013-04-17 18:41:00,81.2,63.5,30.11,East,87,0.0,3.0,55,0.00,BKN,,0.00,44.8,WeatherDisplay:10.37,2013-04-17 22:41:00,
2013-04-17 18:46:00,81.0,63.8,30.11,NE,37,0.0,2.0,56,0.00,BKN,,0.00,36.8,WeatherDisplay:10.37,2013-04-17 22:46:00,
2013-04-17 18:51:00,80.7,63.5,30.11,NNE,32,0.0,0.0,56,0.00,BKN,,0.00,32.2,WeatherDisplay:10.37,2013-04-17 22:51:00,
2013-04-17 18:56:00,80.5,63.9,30.11,NNE,32,0.0,0.0,57,0.00,BKN,,0.00,21.8,WeatherDisplay:10.37,2013-04-17 22:56:00,
2013-04-17 19:01:00,80.3,63.7,30.11,NNE,32,0.0,0.0,57,0.00,BKN,,0.00,24.2,WeatherDisplay:10.37,2013-04-17 23:01:00,
2013-04-17 19:11:00,79.9,63.8,30.10,NNE,32,0.0,0.0,58,0.00,BKN,,0.00,26.5,WeatherDisplay:10.37,2013-04-17 23:11:00,
2013-04-17 19:16:00,79.8,64.2,30.10,NNE,32,0.0,0.0,59,0.00,BKN,,0.00,24.2,WeatherDisplay:10.37,2013-04-17 23:16:00,
2013-04-17 19:21:00,79.6,64.0,30.11,North,357,0.0,1.0,59,0.00,BKN,,0.00,21.8,WeatherDisplay:10.37,2013-04-17 23:21:00,
2013-04-17 19:26:00,79.2,64.1,30.11,NNW,334,0.0,0.0,60,0.00,BKN,,0.00,18.4,WeatherDisplay:10.37,2013-04-17 23:26:00,
2013-04-17 19:31:00,79.0,63.9,30.11,NNW,334,0.0,0.0,60,0.00,BKN,,0.00,13.8,WeatherDisplay:10.37,2013-04-17 23:31:00,
2013-04-17 19:36:00,78.8,64.2,30.11,NNW,334,0.0,0.0,61,0.00,BKN,,0.00,10.4,WeatherDisplay:10.37,2013-04-17 23:36:00,
2013-04-17 19:41:00,78.5,64.0,30.11,NNW,334,0.0,0.0,61,0.00,BKN,,0.00,5.8,WeatherDisplay:10.37,2013-04-17 23:41:00,
2013-04-17 19:46:00,78.3,64.2,30.11,NNW,334,0.0,0.0,62,0.00,BKN,,0.00,0.0,WeatherDisplay:10.37,2013-04-17 23:46:00,
2013-04-17 19:51:00,78.0,64.3,30.11,NNW,334,0.0,0.0,63,0.00,BKN,,0.00,0.0,WeatherDisplay:10.37,2013-04-17 23:51:00,
2013-04-17 19:56:00,77.6,64.5,30.12,NNW,334,0.0,0.0,64,0.00,BKN,,0.00,0.0,WeatherDisplay:10.37,2013-04-17 23:56:00,
2013-04-17 20:01:00,77.2,64.5,30.12,NNW,334,0.0,0.0,65,0.00,BKN,,0.00,0.0,WeatherDisplay:10.37,2013-04-18 00:01:00,
2013-04-17 20:11:00,76.5,64.7,30.12,NNW,334,0.0,0.0,67,0.00,BKN,,0.00,0.0,WeatherDisplay:10.37,2013-04-18 00:11:00,
2013-04-17 20:16:00,76.3,64.5,30.12,NNW,334,0.0,0.0,67,0.00,BKN,,0.00,0.0,WeatherDisplay:10.37,2013-04-18 00:16:00,
2013-04-17 20:21:00,76.0,64.7,30.12,NNW,334,0.0,0.0,68,0.00,BKN,,0.00,0.0,WeatherDisplay:10.37,2013-04-18 00:21:00,
2013-04-17 20:26:00,75.6,65.2,30.12,NNW,334,0.0,0.0,70,0.00,BKN,,0.00,0.0,WeatherDisplay:10.37,2013-04-18 00:26:00,
2013-04-17 20:36:00,75.1,64.2,30.13,NNW,334,0.0,0.0,69,0.00,BKN,,0.00,0.0,WeatherDisplay:10.37,2013-04-18 00:36:00,
2013-04-17 20:41:00,74.9,64.5,30.13,NNW,334,0.0,0.0,70,0.00,BKN,,0.00,0.0,WeatherDisplay:10.37,2013-04-18 00:41:00,
2013-04-17 20:46:00,74.6,64.2,30.13,NNW,334,0.0,0.0,70,0.00,BKN,,0.00,0.0,WeatherDisplay:10.37,2013-04-18 00:46:00,
2013-04-17 20:51:00,74.4,64.0,30.13,NNW,334,0.0,0.0,70,0.00,BKN,,0.00,0.0,WeatherDisplay:10.37,2013-04-18 00:51:00,
2013-04-17 20:56:00,74.2,64.2,30.13,NNW,334,0.0,0.0,71,0.00,BKN,,0.00,0.0,WeatherDisplay:10.37,2013-04-18 00:56:00,
2013-04-17 21:01:00,74.0,64.4,30.13,NNW,334,0.0,0.0,72,0.00,BKN,,0.00,0.0,WeatherDisplay:10.37,2013-04-18 01:01:00,
2013-04-17 21:11:00,73.7,64.5,30.13,NNW,334,0.0,0.0,73,0.00,BKN,,0.00,0.0,WeatherDisplay:10.37,2013-04-18 01:11:00,
2013-04-17 21:16:00,73.5,64.3,30.14,NNW,334,0.0,0.0,73,0.00,BKN,,0.00,0.0,WeatherDisplay:10.37,2013-04-18 01:16:00,
2013-04-17 21:21:00,73.3,64.5,30.14,NNW,334,0.0,0.0,74,0.00,BKN,,0.00,0.0,WeatherDisplay:10.37,2013-04-18 01:21:00,
2013-04-17 21:26:00,73.2,64.4,30.14,NNW,334,0.0,0.0,74,0.00,BKN,,0.00,0.0,WeatherDisplay:10.37,2013-04-18 01:26:00,
2013-04-17 21:31:00,73.0,64.2,30.14,NNW,334,0.0,0.0,74,0.00,BKN,,0.00,0.0,WeatherDisplay:10.37,2013-04-18 01:31:00,
2013-04-17 21:36:00,72.8,64.0,30.14,NNW,334,0.0,0.0,74,0.00,BKN,,0.00,0.0,WeatherDisplay:10.37,2013-04-18 01:36:00,
2013-04-17 21:41:00,72.8,64.0,30.14,NNW,334,0.0,0.0,74,0.00,BKN,,0.00,0.0,WeatherDisplay:10.37,2013-04-18 01:41:00,
2013-04-17 21:51:00,72.7,63.9,30.14,NNW,334,0.0,0.0,74,0.00,BKN,,0.00,0.0,WeatherDisplay:10.37,2013-04-18 01:51:00,
2013-04-17 21:56:00,72.5,64.1,30.15,NNW,334,0.0,0.0,75,0.00,BKN,,0.00,0.0,WeatherDisplay:10.37,2013-04-18 01:56:00,
2013-04-17 22:01:00,72.3,63.2,30.15,North,351,0.0,5.0,73,0.00,BKN,,0.00,0.0,WeatherDisplay:10.37,2013-04-18 02:01:00,
2013-04-17 22:11:00,72.1,62.2,30.15,SE,135,0.0,3.0,71,0.00,BKN,,0.00,0.0,WeatherDisplay:10.37,2013-04-18 02:11:00,
2013-04-17 22:16:00,72.2,62.2,30.15,SSE,154,1.0,6.0,71,0.00,BKN,,0.00,0.0,WeatherDisplay:10.37,2013-04-18 02:16:00,
2013-04-17 22:21:00,72.3,62.4,30.15,SE,144,0.0,2.0,71,0.00,BKN,,0.00,0.0,WeatherDisplay:10.37,2013-04-18 02:21:00,
2013-04-17 22:26:00,72.3,62.4,30.15,SE,137,0.0,6.0,71,0.00,BKN,,0.00,0.0,WeatherDisplay:10.37,2013-04-18 02:26:00,
2013-04-17 22:31:00,72.3,62.4,30.15,South,176,0.0,2.0,71,0.00,BKN,,0.00,0.0,WeatherDisplay:10.37,2013-04-18 02:31:00,
2013-04-17 22:36:00,72.2,62.2,30.15,SSE,156,0.0,2.0,71,0.00,BKN,,0.00,0.0,WeatherDisplay:10.37,2013-04-18 02:36:00,
2013-04-17 22:41:00,72.1,62.2,30.15,ESE,123,0.0,2.0,71,0.00,BKN,,0.00,0.0,WeatherDisplay:10.37,2013-04-18 02:41:00,
2013-04-17 22:46:00,72.1,62.2,30.16,SE,132,0.0,1.0,71,0.00,BKN,,0.00,0.0,WeatherDisplay:10.37,2013-04-18 02:46:00,
2013-04-17 22:51:00,72.0,62.1,30.15,East,86,0.0,2.0,71,0.00,BKN,,0.00,0.0,WeatherDisplay:10.37,2013-04-18 02:51:00,
2013-04-17 22:56:00,72.0,62.5,30.15,ENE,71,0.0,4.0,72,0.00,BKN,,0.00,0.0,WeatherDisplay:10.37,2013-04-18 02:56:00,
2013-04-17 23:01:00,71.8,62.3,30.15,NNE,14,0.0,2.0,72,0.00,BKN,,0.00,0.0,WeatherDisplay:10.37,2013-04-18 03:01:00,
2013-04-17 23:11:00,71.6,62.5,30.16,South,175,0.0,1.0,73,0.00,BKN,,0.00,0.0,WeatherDisplay:10.37,2013-04-18 03:11:00,
2013-04-17 23:16:00,71.6,62.5,30.16,ESE,120,0.0,0.0,73,0.00,BKN,,0.00,0.0,WeatherDisplay:10.37,2013-04-18 03:16:00,
2013-04-17 23:21:00,71.5,62.4,30.16,ESE,109,0.0,0.0,73,0.00,BKN,,0.00,0.0,WeatherDisplay:10.37,2013-04-18 03:21:00,
2013-04-17 23:26:00,71.5,62.4,30.16,ENE,71,0.0,2.0,73,0.00,BKN,,0.00,0.0,WeatherDisplay:10.37,2013-04-18 03:26:00,
2013-04-17 23:31:00,71.3,62.2,30.16,NE,53,0.0,1.0,73,0.00,BKN,,0.00,0.0,WeatherDisplay:10.37,2013-04-18 03:31:00,
2013-04-17 23:36:00,71.3,62.2,30.16,ENE,63,0.0,0.0,73,0.00,BKN,,0.00,0.0,WeatherDisplay:10.37,2013-04-18 03:36:00,
2013-04-17 23:41:00,71.1,62.4,30.16,NNE,14,0.0,1.0,74,0.00,BKN,,0.00,0.0,WeatherDisplay:10.37,2013-04-18 03:41:00,
2013-04-17 23:46:00,71.1,62.4,30.16,NNE,27,0.0,5.0,74,0.00,BKN,,0.00,0.0,WeatherDisplay:10.37,2013-04-18 03:46:00,
2013-04-17 23:51:00,70.9,61.8,30.16,NNE,13,0.0,5.0,73,0.00,BKN,,0.00,0.0,WeatherDisplay:10.37,2013-04-18 03:51:00,
2013-04-17 23:56:00,70.8,61.7,30.16,North,6,0.0,3.0,73,0.00,BKN,,0.00,0.0,WeatherDisplay:10.37,2013-04-18 03:56:00,